Satellite: RESURS Catalog number: 25394 Epoch time: 11167.12384755 Element set: 821 Inclination: 098.3008 deg RA of node: 170.2057 deg Eccentricity: 0.0000431 Arg of perigee: 210.2867 deg Mean anomaly: 149.8288 deg Mean motion: 14.24234742 rev/day Decay rate: -8.0e-08 rev/day^2 Epoch rev: 67215 Checksum: 283
Satellite: NOAA-10 Catalog number: 16969 Epoch time: 11167.15841516 Element set: 534 Inclination: 098.6174 deg RA of node: 196.9599 deg Eccentricity: 0.0011490 Arg of perigee: 226.0351 deg Mean anomaly: 133.9861 deg Mean motion: 14.27465153 rev/day Decay rate: 4.5e-07 rev/day^2 Epoch rev: 28750 Checksum: 319
Satellite: NOAA-11 Catalog number: 19531 Epoch time: 11167.21046906 Element set: 535 Inclination: 098.7523 deg RA of node: 254.6928 deg Eccentricity: 0.0010890 Arg of perigee: 187.7320 deg Mean anomaly: 172.3664 deg Mean motion: 14.14918875 rev/day Decay rate: 1.59e-06 rev/day^2 Epoch rev: 17261 Checksum: 313
Satellite: OKEAN-4 Catalog number: 23317 Epoch time: 11167.21984637 Element set: 584 Inclination: 082.5401 deg RA of node: 014.0426 deg Eccentricity: 0.0023454 Arg of perigee: 119.2514 deg Mean anomaly: 241.1050 deg Mean motion: 14.83086634 rev/day Decay rate: 4.45e-06 rev/day^2 Epoch rev: 90040 Checksum: 263
Satellite: NOAA-18 Catalog number: 28654 Epoch time: 11167.24940909 Element set: 803 Inclination: 098.9947 deg RA of node: 118.3940 deg Eccentricity: 0.0015128 Arg of perigee: 105.4706 deg Mean anomaly: 254.8139 deg Mean motion: 14.11483491 rev/day Decay rate: -4.2e-07 rev/day^2 Epoch rev: 31279 Checksum: 318
Satellite: NOAA-15 Catalog number: 25338 Epoch time: 11167.25229131 Element set: 853 Inclination: 098.6528 deg RA of node: 153.4065 deg Eccentricity: 0.0011733 Arg of perigee: 094.7631 deg Mean anomaly: 265.4866 deg Mean motion: 14.24923353 rev/day Decay rate: 6.7e-07 rev/day^2 Epoch rev: 68059 Checksum: 316
Satellite: NOAA-17 Catalog number: 27453 Epoch time: 11167.26299116 Element set: 323 Inclination: 098.3787 deg RA of node: 207.0162 deg Eccentricity: 0.0012253 Arg of perigee: 147.9734 deg Mean anomaly: 212.2185 deg Mean motion: 14.24282608 rev/day Decay rate: 1.34e-06 rev/day^2 Epoch rev: 46652 Checksum: 296
Satellite: NOAA-16 Catalog number: 26536 Epoch time: 11167.29783271 Element set: 335 Inclination: 099.1389 deg RA of node: 197.8217 deg Eccentricity: 0.0011103 Arg of perigee: 039.3524 deg Mean anomaly: 320.8490 deg Mean motion: 14.12623912 rev/day Decay rate: 3.3e-07 rev/day^2 Epoch rev: 55323 Checksum: 293
Satellite: NOAA-19 Catalog number: 33591 Epoch time: 11167.31728311 Element set: 994 Inclination: 098.8257 deg RA of node: 107.4859 deg Eccentricity: 0.0013990 Arg of perigee: 342.6024 deg Mean anomaly: 017.4674 deg Mean motion: 14.11176649 rev/day Decay rate: 3.83e-06 rev/day^2 Epoch rev: 12126 Checksum: 316
Satellite: NOAA-14 Catalog number: 23455 Epoch time: 11167.46950179 Element set: 518 Inclination: 098.8521 deg RA of node: 250.1121 deg Eccentricity: 0.0008608 Arg of perigee: 284.9152 deg Mean anomaly: 075.1068 deg Mean motion: 14.13822522 rev/day Decay rate: 4.0e-07 rev/day^2 Epoch rev: 84897 Checksum: 301
Satellite: NOAA-12 Catalog number: 21263 Epoch time: 11167.52517753 Element set: 32 Inclination: 098.7471 deg RA of node: 185.3720 deg Eccentricity: 0.0012176 Arg of perigee: 184.4243 deg Mean anomaly: 175.6831 deg Mean motion: 14.25718525 rev/day Decay rate: 7.7e-07 rev/day^2 Epoch rev: 4431 Checksum: 286
Satellite: MET-2/21 Catalog number: 22782 Epoch time: 11167.82259757 Element set: 123 Inclination: 082.5467 deg RA of node: 323.1653 deg Eccentricity: 0.0024015 Arg of perigee: 099.4695 deg Mean anomaly: 260.9191 deg Mean motion: 13.83658802 rev/day Decay rate: -.00000000 rev/day^2 Epoch rev: 89850 Checksum: 308
Satellite: MET-3/5 Catalog number: 21655 Epoch time: 11167.83004627 Element set: 136 Inclination: 082.5583 deg RA of node: 051.0291 deg Eccentricity: 0.0013856 Arg of perigee: 152.7327 deg Mean anomaly: 207.4493 deg Mean motion: 13.17027428 rev/day Decay rate: 5.1e-07 rev/day^2 Epoch rev: 95367 Checksum: 293
Satellite: OKEAN-0 Catalog number: 25860 Epoch time: 11167.95808116 Element set: 335 Inclination: 097.8846 deg RA of node: 134.4088 deg Eccentricity: 0.0001518 Arg of perigee: 038.3597 deg Mean anomaly: 321.7717 deg Mean motion: 14.73794058 rev/day Decay rate: 1.69e-06 rev/day^2 Epoch rev: 64062 Checksum: 326
Satellite: FENGYUN1 Catalog number: 25730 Epoch time: 11167.95824282 Element set: 350 Inclination: 098.8171 deg RA of node: 129.1594 deg Eccentricity: 0.0023947 Arg of perigee: 318.3411 deg Mean anomaly: 041.5934 deg Mean motion: 14.08632226 rev/day Decay rate: 5.76e-06 rev/day^2 Epoch rev: 62303 Checksum: 294
/EX SB KEPS @ AMSAT $ORB11167.M Orbital Elements 11167.MISC
HR AMSAT ORBITAL ELEMENTS FOR MANNED AND MISCELLANEOUS SATELLITES FROM WA5QGD FORT WORTH,TX June 16, 2011 Send Subscribe/unsubscribe to KEPS at http://www.amsat.org/mailman/listinfo/keps BID: ORB11167.M TO ALL RADIO AMATEURS BT
Satellite: CAPE1 Catalog number: 31130 Epoch time: 11166.98838260 Element set: 200 Inclination: 097.8970 deg RA of node: 191.0505 deg Eccentricity: 0.0102096 Arg of perigee: 184.4270 deg Mean anomaly: 175.6043 deg Mean motion: 14.52402969 rev/day Decay rate: 3.45e-06 rev/day^2 Epoch rev: 22046 Checksum: 278
Satellite: HUBBLE Catalog number: 20580 Epoch time: 11167.05457208 Element set: 781 Inclination: 028.4720 deg RA of node: 023.8497 deg Eccentricity: 0.0003427 Arg of perigee: 111.2522 deg Mean anomaly: 248.8269 deg Mean motion: 15.01392892 rev/day Decay rate: 7.42e-06 rev/day^2 Epoch rev: 95948 Checksum: 300
Satellite: CP6 Catalog number: 35004 Epoch time: 11167.16137849 Element set: 656 Inclination: 040.4585 deg RA of node: 139.2318 deg Eccentricity: 0.0021415 Arg of perigee: 231.1528 deg Mean anomaly: 128.7282 deg Mean motion: 15.72749584 rev/day Decay rate: 8.2638e-04 rev/day^2 Epoch rev: 11735 Checksum: 311
Satellite: AAUSAT2 Catalog number: 32788 Epoch time: 11167.16214418 Element set: 4 Inclination: 097.8488 deg RA of node: 231.2219 deg Eccentricity: 0.0015242 Arg of perigee: 175.5762 deg Mean anomaly: 184.5569 deg Mean motion: 14.82635268 rev/day Decay rate: 1.004e-05 rev/day^2 Epoch rev: 16942 Checksum: 306
Satellite: DO-64 Catalog number: 32789 Epoch time: 11167.17207721 Element set: 20 Inclination: 097.8584 deg RA of node: 232.2334 deg Eccentricity: 0.0015499 Arg of perigee: 173.4584 deg Mean anomaly: 186.6801 deg Mean motion: 14.83110635 rev/day Decay rate: 1.314e-05 rev/day^2 Epoch rev: 16943 Checksum: 307
Satellite: PHARMSAT Catalog number: 35002 Epoch time: 11167.18622269 Element set: 574 Inclination: 040.4683 deg RA of node: 176.5813 deg Eccentricity: 0.0023893 Arg of perigee: 212.4342 deg Mean anomaly: 147.5001 deg Mean motion: 15.48659321 rev/day Decay rate: 8.549e-05 rev/day^2 Epoch rev: 11695 Checksum: 295
Satellite: COMPASS Catalog number: 32787 Epoch time: 11167.19832111 Element set: 13 Inclination: 097.8476 deg RA of node: 231.0336 deg Eccentricity: 0.0015416 Arg of perigee: 175.3514 deg Mean anomaly: 184.7891 deg Mean motion: 14.82444919 rev/day Decay rate: 4.76e-06 rev/day^2 Epoch rev: 16941 Checksum: 306
Satellite: CO-66 Catalog number: 32791 Epoch time: 11167.21477042 Element set: 6 Inclination: 097.8497 deg RA of node: 230.9919 deg Eccentricity: 0.0016136 Arg of perigee: 173.9682 deg Mean anomaly: 186.1759 deg Mean motion: 14.82135833 rev/day Decay rate: 7.92e-06 rev/day^2 Epoch rev: 16936 Checksum: 341
Satellite: HAWKSAT1 Catalog number: 35003 Epoch time: 11167.32610145 Element set: 655 Inclination: 040.4519 deg RA of node: 146.9522 deg Eccentricity: 0.0021704 Arg of perigee: 232.8059 deg Mean anomaly: 127.1285 deg Mean motion: 15.65747541 rev/day Decay rate: 5.0835e-04 rev/day^2 Epoch rev: 11729 Checksum: 280
Satellite: CO-58 Catalog number: 28895 Epoch time: 11167.65410367 Element set: 900 Inclination: 097.9675 deg RA of node: 044.0646 deg Eccentricity: 0.0017082 Arg of perigee: 220.2169 deg Mean anomaly: 139.7777 deg Mean motion: 14.60116529 rev/day Decay rate: 2.89e-06 rev/day^2 Epoch rev: 30016 Checksum: 324
Satellite: METEOR-M Catalog number: 35865 Epoch time: 11167.65873645 Element set: 464 Inclination: 098.7059 deg RA of node: 222.7943 deg Eccentricity: 0.0003437 Arg of perigee: 038.9059 deg Mean anomaly: 321.2325 deg Mean motion: 14.21839656 rev/day Decay rate: 1.76e-06 rev/day^2 Epoch rev: 9051 Checksum: 321
Satellite: FALCON Catalog number: 30776 Epoch time: 11167.84432077 Element set: 108 Inclination: 035.4354 deg RA of node: 349.0643 deg Eccentricity: 0.0000784 Arg of perigee: 013.6964 deg Mean anomaly: 346.3774 deg Mean motion: 15.04677837 rev/day Decay rate: 1.235e-05 rev/day^2 Epoch rev: 23499 Checksum: 312
Satellite: RS-38 Catalog number: 35869 Epoch time: 11167.86996656 Element set: 458 Inclination: 098.7025 deg RA of node: 223.0389 deg Eccentricity: 0.0005557 Arg of perigee: 038.6416 deg Mean anomaly: 321.5144 deg Mean motion: 14.22014018 rev/day Decay rate: 1.77e-06 rev/day^2 Epoch rev: 9055 Checksum: 325
Satellite: RS-30 Catalog number: 32953 Epoch time: 11167.90605192 Element set: 826 Inclination: 082.5006 deg RA of node: 162.8974 deg Eccentricity: 0.0019992 Arg of perigee: 031.3830 deg Mean anomaly: 328.8440 deg Mean motion: 12.43013620 rev/day Decay rate: 1.0e-07 rev/day^2 Epoch rev: 13905 Checksum: 276
Satellite: TACSAT-3 Catalog number: 35001 Epoch time: 11167.92851904 Element set: 619 Inclination: 040.4524 deg RA of node: 174.3256 deg Eccentricity: 0.0022662 Arg of perigee: 211.0016 deg Mean anomaly: 148.9466 deg Mean motion: 15.49088866 rev/day Decay rate: 9.993e-05 rev/day^2 Epoch rev: 11704 Checksum: 303
